Location: Bratsk-Energetik
(56.3300°N, 101.7600°E)
Time: 04:39:22
(UTC+08:00)

ISS - Pass Details

Date: 21 July 2018
Orbit: 402 x 408 km, 51.6° (Epoch: 22 July)

Event Time Altitude Azimuth Distance (km) Brightness Sun altitude
Rises 02:46:50 0° 269° (W) 2,330 -0.2 -10.9°
Reaches altitude 10° 02:49:06 10° 257° (WSW) 1,469 -1.3 -10.8°
Maximum altitude 02:51:55 26° 198° (SSW) 838 -2.8 -10.7°
Drops below altitude 10° 02:54:44 10° 139° (SE) 1,468 -1.3 -10.5°
Sets 02:57:00 0° 127° (SE) 2,327 -0.1 -10.4°
